sat.trackr.live / text

‹ back to catalog

STARLINK-35038

NORAD 65482 · 2025-195AA

PAYLOAD ACTIVE UNKNOWN

§ Identity

Operator
Country
US
Launch date
2025-09-03
Launch site
AFETR
Launch vehicle
Mass (kg)
RCS (m²)

Purposes: comms

External: N2YO · Heavens-Above · Gunter

§ Orbital elements

Epoch: 2026-09-19T21:45:42.892416Z

Period
93.85 min
Inclination
53.1576°
Eccentricity
0.0001036
Mean motion
15.34415091 rev/d
Perigee alt
461.9 km
Apogee alt
463.4 km
Semi-major
6,840.8 km
B*
4.9080e-4
RAAN
72.1733°
Arg perigee
80.8880°
Mean anomaly
279.2240°
Rev number
5,976

§ Raw data

STARLINK-350381 65482U 25195AA  26262.90674644  .00016250  00000+0  49080-3 0  99922 65482  53.1576  72.1733 0001036  80.8880 279.2240 15.34415091 59765

JSON: /api/v1/satellites/65482 · /tle

For live sub-satellite position, see the globe view (requires WebGL).

§ Visibility from observer

Set your observer location to see the next 7 days of passes ≥ 10°. The values pass through the URL so the page stays shareable.

No JS? Fill the form by hand. The geolocation button needs JavaScript.